Tobias Bolanos Internatio, Costa Rica

8:16 PM CST on March 23, 2017 (GMT -0600)
Tobias Bolanos International

Weather History for MRPV - April, 2014

Change the Weather History Date:

Wednesday, April 9, 2014

  Actual Average Record
Temperature  
Mean Temperature 75 °F -  
Max Temperature 80 °F 81 °F 86 °F (1998)
Min Temperature 70 °F 69 °F 65 °F (2015)
Cooling Degree Days 10    
Growing Degree Days 25 (Base 50)    
Moisture  
Dew Point 61 °F    
Average Humidity 59    
Maximum Humidity 73    
Minimum Humidity 48    
Precipitation  
Precipitation 0.00 in - - ()
Sea Level Pressure  
Sea Level Pressure 30.01 in    
Wind  
Wind Speed 18 mph ()    
Max Wind Speed 26 mph    
Max Gust Speed 41 mph    
Visibility 6.1 miles    
Events Rain    
Averages and records for this station are not official NWS values.
T = Trace of Precipitation, MM = Missing Value Source: Averaged Metar Reports

Daily Weather History Graph

Daily Weather History Graph

Search for Another Location

Airport or City:

Trip Planner

Search our weather history database for the weather conditions in past years. The results will help you decide how hot, cold, wet, or windy it might be!

Date:

Astronomy

Apr. 09, 2014 Rise Set
Actual Time 5:29 AM CST 5:46 PM CST
Civil Twilight 5:08 AM CST 6:08 PM CST
Nautical Twilight 4:43 AM CST 6:32 PM CST
Astronomical Twilight 4:18 AM CST 6:57 PM CST
Moon 1:27 PM CST (4/9) 1:21 AM CST (4/9)
Length of Visible Light 13h 00m
Length of Day
12h 17m
Waxing Gibbous, 72% of the Moon is Illuminated
Apr 9
Waxing Gibbous
Apr 15
Full
Apr 22
Last Quarter
Apr 29
New
May 6
First Quarter

Hourly Weather History & Observations

Time (CST) Temp. Dew Point Humidity Pressure Visibility Wind Dir Wind Speed Gust Speed Precip Events Conditions
6:00 AM 72 °F 58 °F 52% 29.90 in 6 mi East 13.8 mph - -   Haze
6:00 AM 71.6 °F 57.2 °F 60% 30.07 in 6.2 mi East 13.8 mph - N/A   Partly Cloudy
7:00 AM 71.6 °F 60.8 °F 69% 30.09 in 6.2 mi East 20.7 mph - N/A   Partly Cloudy
8:00 AM 75.2 °F 60.8 °F 61% 30.11 in 6.2 mi ENE 19.6 mph - N/A   Partly Cloudy
9:00 AM 77 °F 61 °F 48% 29.93 in 6 mi ENE 23.0 mph - -   Haze
9:00 AM 77.0 °F 60.8 °F 57% 30.10 in 6.2 mi ENE 23.0 mph - N/A   Partly Cloudy
10:00 AM 78.8 °F 60.8 °F 54% 30.10 in 6.2 mi ENE 24.2 mph 35.7 mph N/A   Partly Cloudy
11:00 AM 78.8 °F 60.8 °F 54% 30.09 in 6.2 mi NE 25.3 mph 36.8 mph N/A Rain Light Rain
12:00 PM 77 °F 62 °F 50% 29.89 in 6 mi ENE 25.3 mph - -   Haze
12:00 PM 77.0 °F 62.6 °F 61% 30.07 in 6.2 mi ENE 25.3 mph 40.3 mph N/A   Scattered Clouds
1:00 PM 78.8 °F 60.8 °F 54% 30.02 in 6.2 mi ENE 25.3 mph 38.0 mph N/A   Partly Cloudy
1:17 PM 75.2 °F 64.4 °F 69% 30.03 in 6.2 mi ENE 26.5 mph - N/A Rain Rain
2:00 PM 71.6 °F 60.8 °F 69% 30.04 in 6.2 mi ENE 21.9 mph 34.5 mph N/A   Scattered Clouds
3:00 PM 77 °F 61 °F 49% 29.83 in 6 mi East 26.5 mph - -   Haze
3:00 PM 77.0 °F 60.8 °F 57% 30.00 in 6.2 mi East 26.5 mph 41.4 mph N/A   Scattered Clouds
4:00 PM 75.2 °F 59.0 °F 57% 29.98 in 6.2 mi ENE 25.3 mph 39.1 mph N/A   Partly Cloudy
4:43 PM 73.4 °F 60.8 °F 65% 30.00 in 6.2 mi ENE 23.0 mph 34.5 mph N/A Rain Rain
5:00 PM 71.6 °F 62.6 °F 73% 30.00 in 6.2 mi ENE 23.0 mph 39.1 mph N/A Rain Rain
6:00 PM 71 °F 60 °F 61% 29.84 in 6 mi ENE 18.4 mph - -   Scattered Clouds
6:00 PM 71.6 °F 60.8 °F 69% 30.01 in 6.2 mi ENE 18.4 mph - N/A   Scattered Clouds